owner,sensor,date,latitude,longitude,vertical_datum,wind_speed,wind_to_direction,wind_speed_of_gust,qcFlag 
TCOON,ioos:station:TCOON:518:1,2008-07-01T00:00:00Z,29.5150,-94.5133,0.0,3.1,157.0,99.0,'11111222,11111222,11144222' 
TCOON,ioos:station:TCOON:518:1,2008-07-01T01:00:00Z,29.5150,-94.5133,0.0,1.5,175.0,99.0,'11111222,11111222,11144222' 
TCOON,ioos:station:TCOON:518:1,2008-07-01T03:00:00Z,29.5150,-94.5133,0.0,1.4,217.0,99.0,'11111222,11111222,11144222' 
TCOON,ioos:station:TCOON:518:1,2008-07-01T04:00:00Z,29.5150,-94.5133,0.0,2.9,271.0,99.0,'11111222,11111222,11144222' 
TCOON,ioos:station:TCOON:518:1,2008-07-01T05:00:00Z,29.5150,-94.5133,0.0,5.0,110.0,99.0,'11111222,11111222,11144222' 
TCOON,ioos:station:TCOON:518:1,2008-07-01T06:00:00Z,29.5150,-94.5133,0.0,1.8,205.0,99.0,'11111222,11111222,11144222' 
TCOON,ioos:station:TCOON:518:1,2008-07-01T07:00:00Z,29.5150,-94.5133,0.0,1.9,330.0,99.0,'11111222,11111222,11144222' 
TCOON,ioos:station:TCOON:518:1,2008-07-01T08:00:00Z,29.5150,-94.5133,0.0,2.9,349.0,99.0,'11111222,11111222,11144222' 
TCOON,ioos:station:TCOON:518:1,2008-07-01T09:00:00Z,29.5150,-94.5133,0.0,2.7,19.0,99.0,'11111222,11111222,11144222' 
TCOON,ioos:station:TCOON:518:1,2008-07-01T10:00:00Z,29.5150,-94.5133,0.0,3.2,53.0,99.0,'11111222,11111222,11144222' 
TCOON,ioos:station:TCOON:518:1,2008-07-01T11:00:00Z,29.5150,-94.5133,0.0,3.9,27.0,99.0,'11111222,11111222,11144222' 
TCOON,ioos:station:TCOON:518:1,2008-07-01T12:00:00Z,29.5150,-94.5133,0.0,4.9,24.0,99.0,'11111222,11111222,11144222' 
TCOON,ioos:station:TCOON:518:1,2008-07-01T13:00:00Z,29.5150,-94.5133,0.0,3.6,42.0,99.0,'11111222,11111222,11144222' 
TCOON,ioos:station:TCOON:518:1,2008-07-01T14:00:00Z,29.5150,-94.5133,0.0,4.3,54.0,99.0,'11111222,11111222,11144222' 
TCOON,ioos:station:TCOON:518:1,2008-07-01T15:00:00Z,29.5150,-94.5133,0.0,4.2,41.0,99.0,'11111222,11111222,11144222' 
TCOON,ioos:station:TCOON:518:1,2008-07-01T16:00:00Z,29.5150,-94.5133,0.0,4.7,68.0,99.0,'11111222,11111222,11144222' 
TCOON,ioos:station:TCOON:518:1,2008-07-01T17:00:00Z,29.5150,-94.5133,0.0,4.7,95.0,99.0,'11111222,11111222,11144222' 
TCOON,ioos:station:TCOON:518:1,2008-07-01T18:00:00Z,29.5150,-94.5133,0.0,5.8,88.0,99.0,'11111222,11111222,11144222' 
TCOON,ioos:station:TCOON:518:1,2008-07-01T19:00:00Z,29.5150,-94.5133,0.0,6.6,93.0,99.0,'11111222,11111222,11144222' 
TCOON,ioos:station:TCOON:518:1,2008-07-01T20:00:00Z,29.5150,-94.5133,0.0,7.7,100.0,99.0,'11111222,11111222,11144222' 
TCOON,ioos:station:TCOON:518:1,2008-07-01T21:00:00Z,29.5150,-94.5133,0.0,6.7,99.0,99.0,'11111222,11111222,11144222' 
TCOON,ioos:station:TCOON:518:1,2008-07-01T22:00:00Z,29.5150,-94.5133,0.0,5.6,113.0,99.0,'11111222,11111222,11144222' 
TCOON,ioos:station:TCOON:518:1,2008-07-01T23:00:00Z,29.5150,-94.5133,0.0,4.9,114.0,99.0,'11111222,11111222,11144222' 
TCOON,ioos:station:TCOON:518:1,2008-07-02T00:00:00Z,29.5150,-94.5133,0.0,5.0,119.0,99.0,'11111222,11111222,11144222' 
TCOON,ioos:station:TCOON:518:1,2008-07-02T01:00:00Z,29.5150,-94.5133,0.0,4.8,103.0,99.0,'11111222,11111222,11144222' 
TCOON,ioos:station:TCOON:518:1,2008-07-02T02:00:00Z,29.5150,-94.5133,0.0,5.2,129.0,99.0,'11111222,11111222,11144222' 
TCOON,ioos:station:TCOON:518:1,2008-07-02T03:00:00Z,29.5150,-94.5133,0.0,4.4,115.0,99.0,'11111222,11111222,11144222' 
TCOON,ioos:station:TCOON:518:1,2008-07-02T04:00:00Z,29.5150,-94.5133,0.0,3.7,117.0,99.0,'11111222,11111222,11144222' 
TCOON,ioos:station:TCOON:518:1,2008-07-02T05:00:00Z,29.5150,-94.5133,0.0,3.4,113.0,99.0,'11111222,11111222,11144222' 
TCOON,ioos:station:TCOON:518:1,2008-07-02T06:00:00Z,29.5150,-94.5133,0.0,3.3,115.0,99.0,'11111222,11111222,11144222' 
TCOON,ioos:station:TCOON:518:1,2008-07-02T07:00:00Z,29.5150,-94.5133,0.0,3.7,113.0,99.0,'11111222,11111222,11144222' 
TCOON,ioos:station:TCOON:518:1,2008-07-02T08:00:00Z,29.5150,-94.5133,0.0,3.4,120.0,99.0,'11111222,11111222,11144222' 
TCOON,ioos:station:TCOON:518:1,2008-07-02T09:00:00Z,29.5150,-94.5133,0.0,3.8,114.0,99.0,'11111222,11111222,11144222' 
TCOON,ioos:station:TCOON:518:1,2008-07-02T10:00:00Z,29.5150,-94.5133,0.0,3.2,127.0,99.0,'11111222,11111222,11144222' 
TCOON,ioos:station:TCOON:518:1,2008-07-02T11:00:00Z,29.5150,-94.5133,0.0,2.1,149.0,99.0,'11111222,11111222,11144222' 
TCOON,ioos:station:TCOON:518:1,2008-07-02T12:00:00Z,29.5150,-94.5133,0.0,0.2,236.0,99.0,'11111222,11111222,11144222' 
TCOON,ioos:station:TCOON:518:1,2008-07-02T13:00:00Z,29.5150,-94.5133,0.0,3.0,2.0,99.0,'11111222,11111222,11144222' 
TCOON,ioos:station:TCOON:518:1,2008-07-02T14:00:00Z,29.5150,-94.5133,0.0,2.3,21.0,99.0,'11111222,11111222,11144222' 
TCOON,ioos:station:TCOON:518:1,2008-07-02T15:00:00Z,29.5150,-94.5133,0.0,1.3,57.0,99.0,'11111222,11111222,11144222' 
TCOON,ioos:station:TCOON:518:1,2008-07-02T16:00:00Z,29.5150,-94.5133,0.0,3.5,156.0,99.0,'11111222,11111222,11144222' 
TCOON,ioos:station:TCOON:518:1,2008-07-02T17:00:00Z,29.5150,-94.5133,0.0,3.5,160.0,99.0,'11111222,11111222,11144222' 
TCOON,ioos:station:TCOON:518:1,2008-07-02T18:00:00Z,29.5150,-94.5133,0.0,3.5,186.0,99.0,'11111222,11111222,11144222' 
TCOON,ioos:station:TCOON:518:1,2008-07-02T19:00:00Z,29.5150,-94.5133,0.0,3.5,172.0,99.0,'11111222,11111222,11144222' 
TCOON,ioos:station:TCOON:518:1,2008-07-02T20:00:00Z,29.5150,-94.5133,0.0,2.8,206.0,99.0,'11111222,11111222,11144222' 
TCOON,ioos:station:TCOON:518:1,2008-07-02T21:00:00Z,29.5150,-94.5133,0.0,4.4,152.0,99.0,'11111222,11111222,11144222' 
TCOON,ioos:station:TCOON:518:1,2008-07-02T22:00:00Z,29.5150,-94.5133,0.0,3.2,177.0,99.0,'11111222,11111222,11144222' 
TCOON,ioos:station:TCOON:518:1,2008-07-02T23:00:00Z,29.5150,-94.5133,0.0,1.9,206.0,99.0,'11111222,11111222,11144222' 
TCOON,ioos:station:TCOON:518:1,2008-07-03T00:00:00Z,29.5150,-94.5133,0.0,3.1,177.0,99.0,'11111222,11111222,11144222' 
TCOON,ioos:station:TCOON:518:1,2008-07-03T01:00:00Z,29.5150,-94.5133,0.0,2.2,199.0,99.0,'11111222,11111222,11144222' 
TCOON,ioos:station:TCOON:518:1,2008-07-03T02:00:00Z,29.5150,-94.5133,0.0,1.4,189.0,99.0,'11111222,11111222,11144222' 
TCOON,ioos:station:TCOON:518:1,2008-07-03T03:00:00Z,29.5150,-94.5133,0.0,1.8,194.0,99.0,'11111222,11111222,11144222' 
TCOON,ioos:station:TCOON:518:1,2008-07-03T04:00:00Z,29.5150,-94.5133,0.0,0.8,229.0,99.0,'11111222,11111222,11144222' 
TCOON,ioos:station:TCOON:518:1,2008-07-03T05:00:00Z,29.5150,-94.5133,0.0,1.4,186.0,99.0,'11111222,11111222,11144222' 
TCOON,ioos:station:TCOON:518:1,2008-07-03T06:00:00Z,29.5150,-94.5133,0.0,1.8,163.0,99.0,'11111222,11111222,11144222' 
TCOON,ioos:station:TCOON:518:1,2008-07-03T07:00:00Z,29.5150,-94.5133,0.0,2.0,180.0,99.0,'11111222,11111222,11144222' 
TCOON,ioos:station:TCOON:518:1,2008-07-03T08:00:00Z,29.5150,-94.5133,0.0,2.2,183.0,99.0,'11111222,11111222,11144222' 
TCOON,ioos:station:TCOON:518:1,2008-07-03T09:00:00Z,29.5150,-94.5133,0.0,2.6,185.0,99.0,'11111222,11111222,11144222' 
TCOON,ioos:station:TCOON:518:1,2008-07-03T10:00:00Z,29.5150,-94.5133,0.0,2.5,192.0,99.0,'11111222,11111222,11144222' 
TCOON,ioos:station:TCOON:518:1,2008-07-03T11:00:00Z,29.5150,-94.5133,0.0,2.4,184.0,99.0,'11111222,11111222,11144222' 
TCOON,ioos:station:TCOON:518:1,2008-07-03T12:00:00Z,29.5150,-94.5133,0.0,1.6,177.0,99.0,'11111222,11111222,11144222' 
TCOON,ioos:station:TCOON:518:1,2008-07-03T13:00:00Z,29.5150,-94.5133,0.0,1.9,159.0,99.0,'11111222,11111222,11144222' 
TCOON,ioos:station:TCOON:518:1,2008-07-03T15:00:00Z,29.5150,-94.5133,0.0,0.3,96.0,99.0,'11111222,11111222,11144222' 
TCOON,ioos:station:TCOON:518:1,2008-07-03T16:00:00Z,29.5150,-94.5133,0.0,2.8,140.0,99.0,'11111222,11111222,11144222' 
TCOON,ioos:station:TCOON:518:1,2008-07-03T17:00:00Z,29.5150,-94.5133,0.0,3.6,139.0,99.0,'11111222,11111222,11144222' 
TCOON,ioos:station:TCOON:518:1,2008-07-03T18:00:00Z,29.5150,-94.5133,0.0,4.9,156.0,99.0,'11111222,11111222,11144222' 
TCOON,ioos:station:TCOON:518:1,2008-07-03T19:00:00Z,29.5150,-94.5133,0.0,4.9,145.0,99.0,'11111222,11111222,11144222' 
TCOON,ioos:station:TCOON:518:1,2008-07-03T20:00:00Z,29.5150,-94.5133,0.0,4.5,145.0,99.0,'11111222,11111222,11144222' 
TCOON,ioos:station:TCOON:518:1,2008-07-03T21:00:00Z,29.5150,-94.5133,0.0,3.8,166.0,99.0,'11111222,11111222,11144222' 
TCOON,ioos:station:TCOON:518:1,2008-07-03T22:00:00Z,29.5150,-94.5133,0.0,6.3,149.0,99.0,'11111222,11111222,11144222' 
TCOON,ioos:station:TCOON:518:1,2008-07-03T23:00:00Z,29.5150,-94.5133,0.0,4.3,176.0,99.0,'11111222,11111222,11144222' 
TCOON,ioos:station:TCOON:518:1,2008-07-04T00:00:00Z,29.5150,-94.5133,0.0,3.7,165.0,99.0,'11111222,11111222,11144222' 
TCOON,ioos:station:TCOON:518:1,2008-07-04T01:00:00Z,29.5150,-94.5133,0.0,4.7,179.0,99.0,'11111222,11111222,11144222' 
TCOON,ioos:station:TCOON:518:1,2008-07-04T02:00:00Z,29.5150,-94.5133,0.0,4.9,188.0,99.0,'11111222,11111222,11144222' 
TCOON,ioos:station:TCOON:518:1,2008-07-04T03:00:00Z,29.5150,-94.5133,0.0,3.4,182.0,99.0,'11111222,11111222,11144222' 
TCOON,ioos:station:TCOON:518:1,2008-07-04T04:00:00Z,29.5150,-94.5133,0.0,1.7,207.0,99.0,'11111222,11111222,11144222' 
TCOON,ioos:station:TCOON:518:1,2008-07-04T05:00:00Z,29.5150,-94.5133,0.0,1.8,184.0,99.0,'11111222,11111222,11144222' 
TCOON,ioos:station:TCOON:518:1,2008-07-04T06:00:00Z,29.5150,-94.5133,0.0,2.3,211.0,99.0,'11111222,11111222,11144222' 
TCOON,ioos:station:TCOON:518:1,2008-07-04T07:00:00Z,29.5150,-94.5133,0.0,1.4,201.0,99.0,'11111222,11111222,11144222' 
TCOON,ioos:station:TCOON:518:1,2008-07-04T08:00:00Z,29.5150,-94.5133,0.0,1.6,196.0,99.0,'11111222,11111222,11144222' 
TCOON,ioos:station:TCOON:518:1,2008-07-04T09:00:00Z,29.5150,-94.5133,0.0,2.7,182.0,99.0,'11111222,11111222,11144222' 
TCOON,ioos:station:TCOON:518:1,2008-07-04T10:00:00Z,29.5150,-94.5133,0.0,3.3,178.0,99.0,'11111222,11111222,11144222' 
TCOON,ioos:station:TCOON:518:1,2008-07-04T11:00:00Z,29.5150,-94.5133,0.0,2.4,192.0,99.0,'11111222,11111222,11144222' 
TCOON,ioos:station:TCOON:518:1,2008-07-04T12:00:00Z,29.5150,-94.5133,0.0,2.3,190.0,99.0,'11111222,11111222,11144222' 
TCOON,ioos:station:TCOON:518:1,2008-07-04T13:00:00Z,29.5150,-94.5133,0.0,2.2,166.0,99.0,'11111222,11111222,11144222' 
TCOON,ioos:station:TCOON:518:1,2008-07-04T14:00:00Z,29.5150,-94.5133,0.0,2.4,169.0,99.0,'11111222,11111222,11144222' 
TCOON,ioos:station:TCOON:518:1,2008-07-04T15:00:00Z,29.5150,-94.5133,0.0,2.5,221.0,99.0,'11111222,11111222,11144222' 
TCOON,ioos:station:TCOON:518:1,2008-07-04T16:00:00Z,29.5150,-94.5133,0.0,2.5,170.0,99.0,'11111222,11111222,11144222' 
TCOON,ioos:station:TCOON:518:1,2008-07-04T17:00:00Z,29.5150,-94.5133,0.0,3.4,156.0,99.0,'11111222,11111222,11144222' 
TCOON,ioos:station:TCOON:518:1,2008-07-04T18:00:00Z,29.5150,-94.5133,0.0,4.1,128.0,99.0,'11111222,11111222,11144222' 
TCOON,ioos:station:TCOON:518:1,2008-07-04T19:00:00Z,29.5150,-94.5133,0.0,4.9,206.0,99.0,'11111222,11111222,11144222' 
TCOON,ioos:station:TCOON:518:1,2008-07-04T20:00:00Z,29.5150,-94.5133,0.0,6.2,253.0,99.0,'11111222,11111222,11144222' 
TCOON,ioos:station:TCOON:518:1,2008-07-04T21:00:00Z,29.5150,-94.5133,0.0,3.2,268.0,99.0,'11111222,11111222,11144222' 
TCOON,ioos:station:TCOON:518:1,2008-07-04T22:00:00Z,29.5150,-94.5133,0.0,1.7,180.0,99.0,'11111222,11111222,11144222' 
TCOON,ioos:station:TCOON:518:1,2008-07-04T23:00:00Z,29.5150,-94.5133,0.0,2.0,156.0,99.0,'11111222,11111222,11144222' 
TCOON,ioos:station:TCOON:518:1,2008-07-05T00:00:00Z,29.5150,-94.5133,0.0,2.6,178.0,99.0,'11111222,11111222,11144222' 
TCOON,ioos:station:TCOON:518:1,2008-07-05T01:00:00Z,29.5150,-94.5133,0.0,2.0,207.0,99.0,'11111222,11111222,11144222' 
TCOON,ioos:station:TCOON:518:1,2008-07-05T02:00:00Z,29.5150,-94.5133,0.0,1.1,253.0,99.0,'11111222,11111222,11144222' 
TCOON,ioos:station:TCOON:518:1,2008-07-05T03:00:00Z,29.5150,-94.5133,0.0,1.7,242.0,99.0,'11111222,11111222,11144222' 
TCOON,ioos:station:TCOON:518:1,2008-07-05T04:00:00Z,29.5150,-94.5133,0.0,1.1,254.0,99.0,'11111222,11111222,11144222' 
TCOON,ioos:station:TCOON:518:1,2008-07-05T05:00:00Z,29.5150,-94.5133,0.0,1.3,221.0,99.0,'11111222,11111222,11144222' 
TCOON,ioos:station:TCOON:518:1,2008-07-05T06:00:00Z,29.5150,-94.5133,0.0,1.7,179.0,99.0,'11111222,11111222,11144222' 
TCOON,ioos:station:TCOON:518:1,2008-07-05T07:00:00Z,29.5150,-94.5133,0.0,2.6,180.0,99.0,'11111222,11111222,11144222' 
TCOON,ioos:station:TCOON:518:1,2008-07-05T08:00:00Z,29.5150,-94.5133,0.0,3.7,183.0,99.0,'11111222,11111222,11144222' 
TCOON,ioos:station:TCOON:518:1,2008-07-05T09:00:00Z,29.5150,-94.5133,0.0,2.6,169.0,99.0,'11111222,11111222,11144222' 
TCOON,ioos:station:TCOON:518:1,2008-07-05T10:00:00Z,29.5150,-94.5133,0.0,3.2,175.0,99.0,'11111222,11111222,11144222' 
TCOON,ioos:station:TCOON:518:1,2008-07-05T11:00:00Z,29.5150,-94.5133,0.0,3.0,160.0,99.0,'11111222,11111222,11144222' 
TCOON,ioos:station:TCOON:518:1,2008-07-05T12:00:00Z,29.5150,-94.5133,0.0,2.5,149.0,99.0,'11111222,11111222,11144222' 
TCOON,ioos:station:TCOON:518:1,2008-07-05T13:00:00Z,29.5150,-94.5133,0.0,2.3,130.0,99.0,'11111222,11111222,11144222' 
TCOON,ioos:station:TCOON:518:1,2008-07-05T14:00:00Z,29.5150,-94.5133,0.0,2.3,132.0,99.0,'11111222,11111222,11144222' 
TCOON,ioos:station:TCOON:518:1,2008-07-05T15:00:00Z,29.5150,-94.5133,0.0,3.3,128.0,99.0,'11111222,11111222,11144222' 
TCOON,ioos:station:TCOON:518:1,2008-07-05T16:00:00Z,29.5150,-94.5133,0.0,4.0,111.0,99.0,'11111222,11111222,11144222' 
TCOON,ioos:station:TCOON:518:1,2008-07-05T17:00:00Z,29.5150,-94.5133,0.0,4.0,144.0,99.0,'11111222,11111222,11144222' 
TCOON,ioos:station:TCOON:518:1,2008-07-05T18:00:00Z,29.5150,-94.5133,0.0,4.8,139.0,99.0,'11111222,11111222,11144222' 
TCOON,ioos:station:TCOON:518:1,2008-07-05T19:00:00Z,29.5150,-94.5133,0.0,5.2,138.0,99.0,'11111222,11111222,11144222' 
TCOON,ioos:station:TCOON:518:1,2008-07-05T20:00:00Z,29.5150,-94.5133,0.0,5.3,148.0,99.0,'11111222,11111222,11144222' 
TCOON,ioos:station:TCOON:518:1,2008-07-05T21:00:00Z,29.5150,-94.5133,0.0,5.4,143.0,99.0,'11111222,11111222,11144222' 
TCOON,ioos:station:TCOON:518:1,2008-07-05T22:00:00Z,29.5150,-94.5133,0.0,3.7,157.0,99.0,'11111222,11111222,11144222' 
TCOON,ioos:station:TCOON:518:1,2008-07-05T23:00:00Z,29.5150,-94.5133,0.0,5.0,151.0,99.0,'11111222,11111222,11144222' 
TCOON,ioos:station:TCOON:518:1,2008-07-06T00:00:00Z,29.5150,-94.5133,0.0,3.6,175.0,99.0,'11111222,11111222,11144222' 
TCOON,ioos:station:TCOON:518:1,2008-07-06T01:00:00Z,29.5150,-94.5133,0.0,3.7,165.0,99.0,'11111222,11111222,11144222' 
TCOON,ioos:station:TCOON:518:1,2008-07-06T02:00:00Z,29.5150,-94.5133,0.0,2.2,150.0,99.0,'11111222,11111222,11144222' 
TCOON,ioos:station:TCOON:518:1,2008-07-06T03:00:00Z,29.5150,-94.5133,0.0,1.9,166.0,99.0,'11111222,11111222,11144222' 
TCOON,ioos:station:TCOON:518:1,2008-07-06T04:00:00Z,29.5150,-94.5133,0.0,3.2,174.0,99.0,'11111222,11111222,11144222' 
TCOON,ioos:station:TCOON:518:1,2008-07-06T05:00:00Z,29.5150,-94.5133,0.0,1.8,186.0,99.0,'11111222,11111222,11144222' 
TCOON,ioos:station:TCOON:518:1,2008-07-06T06:00:00Z,29.5150,-94.5133,0.0,2.4,149.0,99.0,'11111222,11111222,11144222' 
TCOON,ioos:station:TCOON:518:1,2008-07-06T07:00:00Z,29.5150,-94.5133,0.0,3.3,138.0,99.0,'11111222,11111222,11144222' 
TCOON,ioos:station:TCOON:518:1,2008-07-06T08:00:00Z,29.5150,-94.5133,0.0,2.6,161.0,99.0,'11111222,11111222,11144222' 
TCOON,ioos:station:TCOON:518:1,2008-07-06T09:00:00Z,29.5150,-94.5133,0.0,3.6,149.0,99.0,'11111222,11111222,11144222' 
TCOON,ioos:station:TCOON:518:1,2008-07-06T10:00:00Z,29.5150,-94.5133,0.0,4.8,141.0,99.0,'11111222,11111222,11144222' 
TCOON,ioos:station:TCOON:518:1,2008-07-06T11:00:00Z,29.5150,-94.5133,0.0,3.6,137.0,99.0,'11111222,11111222,11144222' 
TCOON,ioos:station:TCOON:518:1,2008-07-06T12:00:00Z,29.5150,-94.5133,0.0,4.3,137.0,99.0,'11111222,11111222,11144222' 
TCOON,ioos:station:TCOON:518:1,2008-07-06T13:00:00Z,29.5150,-94.5133,0.0,3.7,144.0,99.0,'11111222,11111222,11144222' 
TCOON,ioos:station:TCOON:518:1,2008-07-06T14:00:00Z,29.5150,-94.5133,0.0,3.9,151.0,99.0,'11111222,11111222,11144222' 
TCOON,ioos:station:TCOON:518:1,2008-07-06T15:00:00Z,29.5150,-94.5133,0.0,3.9,147.0,99.0,'11111222,11111222,11144222' 
TCOON,ioos:station:TCOON:518:1,2008-07-06T16:00:00Z,29.5150,-94.5133,0.0,4.8,138.0,99.0,'11111222,11111222,11144222' 
TCOON,ioos:station:TCOON:518:1,2008-07-06T17:00:00Z,29.5150,-94.5133,0.0,4.4,124.0,99.0,'11111222,11111222,11144222' 
TCOON,ioos:station:TCOON:518:1,2008-07-06T18:00:00Z,29.5150,-94.5133,0.0,3.4,139.0,99.0,'11111222,11111222,11144222' 
TCOON,ioos:station:TCOON:518:1,2008-07-06T19:00:00Z,29.5150,-94.5133,0.0,4.5,129.0,99.0,'11111222,11111222,11144222' 
TCOON,ioos:station:TCOON:518:1,2008-07-06T20:00:00Z,29.5150,-94.5133,0.0,4.0,140.0,99.0,'11111222,11111222,11144222' 
TCOON,ioos:station:TCOON:518:1,2008-07-06T21:00:00Z,29.5150,-94.5133,0.0,4.8,142.0,99.0,'11111222,11111222,11144222' 
TCOON,ioos:station:TCOON:518:1,2008-07-06T22:00:00Z,29.5150,-94.5133,0.0,4.2,131.0,99.0,'11111222,11111222,11144222' 
TCOON,ioos:station:TCOON:518:1,2008-07-06T23:00:00Z,29.5150,-94.5133,0.0,5.1,116.0,99.0,'11111222,11111222,11144222' 
TCOON,ioos:station:TCOON:518:1,2008-07-07T00:00:00Z,29.5150,-94.5133,0.0,5.5,133.0,99.0,'11111222,11111222,11144222' 
TCOON,ioos:station:TCOON:518:1,2008-07-07T01:00:00Z,29.5150,-94.5133,0.0,4.6,143.0,99.0,'11111222,11111222,11144222' 
TCOON,ioos:station:TCOON:518:1,2008-07-07T02:00:00Z,29.5150,-94.5133,0.0,5.2,140.0,99.0,'11111222,11111222,11144222' 
TCOON,ioos:station:TCOON:518:1,2008-07-07T03:00:00Z,29.5150,-94.5133,0.0,4.3,157.0,99.0,'11111222,11111222,11144222' 
TCOON,ioos:station:TCOON:518:1,2008-07-07T04:00:00Z,29.5150,-94.5133,0.0,5.6,152.0,99.0,'11111222,11111222,11144222' 
TCOON,ioos:station:TCOON:518:1,2008-07-07T05:00:00Z,29.5150,-94.5133,0.0,4.4,156.0,99.0,'11111222,11111222,11144222' 
TCOON,ioos:station:TCOON:518:1,2008-07-07T06:00:00Z,29.5150,-94.5133,0.0,4.5,155.0,99.0,'11111222,11111222,11144222' 
TCOON,ioos:station:TCOON:518:1,2008-07-07T07:00:00Z,29.5150,-94.5133,0.0,4.6,145.0,99.0,'11111222,11111222,11144222' 
TCOON,ioos:station:TCOON:518:1,2008-07-07T08:00:00Z,29.5150,-94.5133,0.0,4.3,133.0,99.0,'11111222,11111222,11144222' 
TCOON,ioos:station:TCOON:518:1,2008-07-07T09:00:00Z,29.5150,-94.5133,0.0,5.3,131.0,99.0,'11111222,11111222,11144222' 
TCOON,ioos:station:TCOON:518:1,2008-07-07T10:00:00Z,29.5150,-94.5133,0.0,3.9,132.0,99.0,'11111222,11111222,11144222' 
TCOON,ioos:station:TCOON:518:1,2008-07-07T11:00:00Z,29.5150,-94.5133,0.0,3.9,135.0,99.0,'11111222,11111222,11144222' 
TCOON,ioos:station:TCOON:518:1,2008-07-07T12:00:00Z,29.5150,-94.5133,0.0,4.9,133.0,99.0,'11111222,11111222,11144222' 
TCOON,ioos:station:TCOON:518:1,2008-07-07T13:00:00Z,29.5150,-94.5133,0.0,5.0,124.0,99.0,'11111222,11111222,11144222' 
TCOON,ioos:station:TCOON:518:1,2008-07-07T14:00:00Z,29.5150,-94.5133,0.0,4.2,120.0,99.0,'11111222,11111222,11144222' 
TCOON,ioos:station:TCOON:518:1,2008-07-07T15:00:00Z,29.5150,-94.5133,0.0,4.2,114.0,99.0,'11111222,11111222,11144222' 
TCOON,ioos:station:TCOON:518:1,2008-07-07T16:00:00Z,29.5150,-94.5133,0.0,5.7,113.0,99.0,'11111222,11111222,11144222' 
TCOON,ioos:station:TCOON:518:1,2008-07-07T17:00:00Z,29.5150,-94.5133,0.0,5.7,112.0,99.0,'11111222,11111222,11144222' 
TCOON,ioos:station:TCOON:518:1,2008-07-07T18:00:00Z,29.5150,-94.5133,0.0,6.4,129.0,99.0,'11111222,11111222,11144222' 
TCOON,ioos:station:TCOON:518:1,2008-07-07T19:00:00Z,29.5150,-94.5133,0.0,7.2,124.0,99.0,'11111222,11111222,11144222' 
TCOON,ioos:station:TCOON:518:1,2008-07-07T20:00:00Z,29.5150,-94.5133,0.0,6.8,142.0,99.0,'11111222,11111222,11144222' 
TCOON,ioos:station:TCOON:518:1,2008-07-07T21:00:00Z,29.5150,-94.5133,0.0,7.2,125.0,99.0,'11111222,11111222,11144222' 
TCOON,ioos:station:TCOON:518:1,2008-07-07T22:00:00Z,29.5150,-94.5133,0.0,6.4,137.0,99.0,'11111222,11111222,11144222' 
TCOON,ioos:station:TCOON:518:1,2008-07-07T23:00:00Z,29.5150,-94.5133,0.0,6.1,137.0,99.0,'11111222,11111222,11144222' 
TCOON,ioos:station:TCOON:518:1,2008-07-08T00:00:00Z,29.5150,-94.5133,0.0,5.1,135.0,99.0,'11111222,11111222,11144222' 
TCOON,ioos:station:TCOON:518:1,2008-07-08T01:00:00Z,29.5150,-94.5133,0.0,3.5,150.0,99.0,'11111222,11111222,11144222' 
TCOON,ioos:station:TCOON:518:1,2008-07-08T02:00:00Z,29.5150,-94.5133,0.0,3.8,144.0,99.0,'11111222,11111222,11144222' 
TCOON,ioos:station:TCOON:518:1,2008-07-08T03:00:00Z,29.5150,-94.5133,0.0,4.8,128.0,99.0,'11111222,11111222,11144222' 
TCOON,ioos:station:TCOON:518:1,2008-07-08T04:00:00Z,29.5150,-94.5133,0.0,5.3,112.0,99.0,'11111222,11111222,11144222' 
TCOON,ioos:station:TCOON:518:1,2008-07-08T05:00:00Z,29.5150,-94.5133,0.0,6.8,127.0,99.0,'11111222,11111222,11144222' 
TCOON,ioos:station:TCOON:518:1,2008-07-08T06:00:00Z,29.5150,-94.5133,0.0,7.4,129.0,99.0,'11111222,11111222,11144222' 
TCOON,ioos:station:TCOON:518:1,2008-07-08T07:00:00Z,29.5150,-94.5133,0.0,6.0,141.0,99.0,'11111222,11111222,11144222' 
TCOON,ioos:station:TCOON:518:1,2008-07-08T08:00:00Z,29.5150,-94.5133,0.0,5.2,136.0,99.0,'11111222,11111222,11144222' 
TCOON,ioos:station:TCOON:518:1,2008-07-08T09:00:00Z,29.5150,-94.5133,0.0,5.8,141.0,99.0,'11111222,11111222,11144222' 
TCOON,ioos:station:TCOON:518:1,2008-07-08T10:00:00Z,29.5150,-94.5133,0.0,5.5,140.0,99.0,'11111222,11111222,11144222' 
TCOON,ioos:station:TCOON:518:1,2008-07-08T11:00:00Z,29.5150,-94.5133,0.0,4.3,148.0,99.0,'11111222,11111222,11144222' 
TCOON,ioos:station:TCOON:518:1,2008-07-08T12:00:00Z,29.5150,-94.5133,0.0,4.2,134.0,99.0,'11111222,11111222,11144222' 
TCOON,ioos:station:TCOON:518:1,2008-07-08T13:00:00Z,29.5150,-94.5133,0.0,4.6,137.0,99.0,'11111222,11111222,11144222' 
TCOON,ioos:station:TCOON:518:1,2008-07-08T14:00:00Z,29.5150,-94.5133,0.0,4.4,137.0,99.0,'11111222,11111222,11144222' 
TCOON,ioos:station:TCOON:518:1,2008-07-08T15:00:00Z,29.5150,-94.5133,0.0,5.1,122.0,99.0,'11111222,11111222,11144222' 
TCOON,ioos:station:TCOON:518:1,2008-07-08T16:00:00Z,29.5150,-94.5133,0.0,5.0,134.0,99.0,'11111222,11111222,11144222' 
TCOON,ioos:station:TCOON:518:1,2008-07-08T17:00:00Z,29.5150,-94.5133,0.0,4.3,146.0,99.0,'11111222,11111222,11144222' 
TCOON,ioos:station:TCOON:518:1,2008-07-08T18:00:00Z,29.5150,-94.5133,0.0,5.1,133.0,99.0,'11111222,11111222,11144222' 
TCOON,ioos:station:TCOON:518:1,2008-07-08T19:00:00Z,29.5150,-94.5133,0.0,5.1,124.0,99.0,'11111222,11111222,11144222' 
TCOON,ioos:station:TCOON:518:1,2008-07-08T20:00:00Z,29.5150,-94.5133,0.0,6.8,129.0,99.0,'11111222,11111222,11144222' 
TCOON,ioos:station:TCOON:518:1,2008-07-08T21:00:00Z,29.5150,-94.5133,0.0,4.8,148.0,99.0,'11111222,11111222,11144222' 
TCOON,ioos:station:TCOON:518:1,2008-07-08T22:00:00Z,29.5150,-94.5133,0.0,3.9,150.0,99.0,'11111222,11111222,11144222' 
TCOON,ioos:station:TCOON:518:1,2008-07-08T23:00:00Z,29.5150,-94.5133,0.0,5.2,145.0,99.0,'11111222,11111222,11144222' 
TCOON,ioos:station:TCOON:518:1,2008-07-09T00:00:00Z,29.5150,-94.5133,0.0,3.0,163.0,99.0,'11111222,11111222,11144222' 
TCOON,ioos:station:TCOON:518:1,2008-07-09T01:00:00Z,29.5150,-94.5133,0.0,3.2,155.0,99.0,'11111222,11111222,11144222' 
TCOON,ioos:station:TCOON:518:1,2008-07-09T02:00:00Z,29.5150,-94.5133,0.0,3.5,146.0,99.0,'11111222,11111222,11144222' 
TCOON,ioos:station:TCOON:518:1,2008-07-09T03:00:00Z,29.5150,-94.5133,0.0,2.3,162.0,99.0,'11111222,11111222,11144222' 
TCOON,ioos:station:TCOON:518:1,2008-07-09T04:00:00Z,29.5150,-94.5133,0.0,3.2,146.0,99.0,'11111222,11111222,11144222' 
TCOON,ioos:station:TCOON:518:1,2008-07-09T05:00:00Z,29.5150,-94.5133,0.0,2.6,148.0,99.0,'11111222,11111222,11144222' 
TCOON,ioos:station:TCOON:518:1,2008-07-09T06:00:00Z,29.5150,-94.5133,0.0,3.0,148.0,99.0,'11111222,11111222,11144222' 
TCOON,ioos:station:TCOON:518:1,2008-07-09T07:00:00Z,29.5150,-94.5133,0.0,2.3,147.0,99.0,'11111222,11111222,11144222' 
TCOON,ioos:station:TCOON:518:1,2008-07-09T08:00:00Z,29.5150,-94.5133,0.0,2.6,142.0,99.0,'11111222,11111222,11144222' 
TCOON,ioos:station:TCOON:518:1,2008-07-09T09:00:00Z,29.5150,-94.5133,0.0,2.7,146.0,99.0,'11111222,11111222,11144222' 
TCOON,ioos:station:TCOON:518:1,2008-07-09T10:00:00Z,29.5150,-94.5133,0.0,2.1,149.0,99.0,'11111222,11111222,11144222' 
TCOON,ioos:station:TCOON:518:1,2008-07-09T11:00:00Z,29.5150,-94.5133,0.0,1.2,181.0,99.0,'11111222,11111222,11144222' 